| time (UTC) | temp F | wind direction | speed MPH | gust MPH | rain 1hr in | rain 24hr in | rain mn in | humidity % | barometer mb |
| 20260906204503 | 76 | 190 | 0.0 | 4.0 | 0.00 | 0.00 | 0.00 | 48 | 1015.3 |
| 20260906203048 | 77 | 187 | 1.0 | 3.0 | 0.00 | 0.00 | 0.00 | 45 | 1015.3 |
| 20260906201548 | 75 | 169 | 1.0 | 6.0 | 0.00 | 0.00 | 0.00 | 47 | 1015.3 |
| 20260906200050 | 75 | 167 | 1.0 | 5.0 | 0.00 | 0.00 | 0.00 | 48 | 1015.4 |
| 20260906194545 | 75 | 200 | 0.0 | 5.0 | 0.00 | 0.00 | 0.00 | 49 | 1015.3 |
| 20260906193043 | 74 | 140 | 0.0 | 7.0 | 0.00 | 0.00 | 0.00 | 51 | 1015.4 |
| 20260906191554 | 75 | 203 | 0.0 | 3.0 | 0.00 | 0.00 | 0.00 | 49 | 1015.4 |
| 20260906190042 | 75 | 188 | 2.0 | 5.0 | 0.00 | 0.00 | 0.00 | 49 | 1015.4 |
| 20260906184542 | 75 | 180 | 0.0 | 3.0 | 0.00 | 0.00 | 0.00 | 52 | 1015.6 |
| 20260906183026 | 74 | 184 | 0.0 | 5.0 | 0.00 | 0.00 | 0.00 | 50 | 1015.7 |
| 20260906181522 | 74 | 179 | 1.0 | 6.0 | 0.00 | 0.00 | 0.00 | 53 | 1015.9 |
| 20260906180021 | 73 | 197 | 0.0 | 3.0 | 0.00 | 0.00 | 0.00 | 57 | 1015.8 |
| 20260906174518 | 74 | 184 | 2.0 | 9.0 | 0.00 | 0.00 | 0.00 | 54 | 1015.8 |
| 20260906173016 | 73 | 330 | 1.0 | 5.0 | 0.00 | 0.00 | 0.00 | 56 | 1016.1 |
| 20260906171514 | 74 | 200 | 1.0 | 5.0 | 0.00 | 0.00 | 0.00 | 57 | 1016.3 |
| 20260906170012 | 75 | 190 | 0.0 | 5.0 | 0.00 | 0.00 | 0.00 | 55 | 1016.2 |
| 20260906164509 | 74 | 198 | 1.0 | 3.0 | 0.00 | 0.00 | 0.00 | 62 | 1016.3 |
| 20260906163007 | 74 | 193 | 1.0 | 4.0 | 0.00 | 0.00 | 0.00 | 62 | 1016.4 |
| 20260906161505 | 73 | 158 | 1.0 | 4.0 | 0.00 | 0.00 | 0.00 | 62 | 1016.6 |
| 20260906160004 | 72 | 203 | 1.0 | 4.0 | 0.00 | 0.00 | 0.00 | 63 | 1016.5 |
| 20260906154503 | 73 | 184 | 1.0 | 5.0 | 0.00 | 0.00 | 0.00 | 61 | 1016.6 |
| 20260906153106 | 71 | 197 | 1.0 | 5.0 | 0.00 | 0.00 | 0.00 | 64 | 1016.7 |
| 20260906151559 | 71 | 182 | 1.0 | 6.0 | 0.00 | 0.00 | 0.00 | 65 | 1016.8 |
| 20260906150001 | 71 | 200 | 2.0 | 4.0 | 0.00 | 0.00 | 0.00 | 63 | 1016.9 |
| 20260906144601 | 70 | 200 | 1.0 | 4.0 | 0.00 | 0.00 | 0.00 | 66 | 1016.9 |
| 20260906143059 | 69 | 341 | 0.0 | 3.0 | 0.00 | 0.00 | 0.00 | 69 | 1016.9 |
| 20260906141558 | 67 | 341 | 1.0 | 8.0 | 0.00 | 0.00 | 0.00 | 72 | 1016.8 |
| 20260906140104 | 66 | 340 | 1.0 | 8.0 | 0.00 | 0.00 | 0.00 | 73 | 1016.6 |
| 20260906134556 | 66 | 343 | 0.0 | 5.0 | 0.00 | 0.00 | 0.00 | 74 | 1016.5 |
| 20260906133043 | 64 | 343 | 0.0 | 4.0 | 0.00 | 0.00 | 0.00 | 76 | 1016.3 |
| 20260906131557 | 64 | 343 | 0.0 | 2.0 | 0.00 | 0.00 | 0.00 | 77 | 1016.3 |
| 20260906130045 | 63 | 343 | 0.0 | 3.0 | 0.00 | 0.00 | 0.00 | 81 | 1016.3 |
| 20260906124542 | 61 | 343 | 0.0 | 1.0 | 0.00 | 0.00 | 0.00 | 83 | 1016.3 |
| 20260906123040 | 60 | 343 | 0.0 | 1.0 | 0.00 | 0.00 | 0.00 | 84 | 1016.3 |
| 20260906121540 | 60 | 343 | 0.0 | 1.0 | 0.00 | 0.00 | 0.00 | 86 | 1016.3 |
| 20260906120038 | 59 | 343 | 0.0 | 0.0 | 0.00 | 0.00 | 0.00 | 88 | 1016.2 |
| 20260906114536 | 58 | 343 | 0.0 | 0.0 | 0.00 | 0.00 | 0.00 | 88 | 1015.8 |
| 20260906113024 | 58 | 343 | 0.0 | 1.0 | 0.00 | 0.00 | 0.00 | 87 | 1015.7 |
| 20260906111523 | 58 | 342 | 0.0 | 1.0 | 0.00 | 0.00 | 0.00 | 88 | 1015.5 |
| 20260906110020 | 58 | 343 | 0.0 | 2.0 | 0.00 | 0.00 | 0.00 | 88 | 1015.4 |
| 20260906104519 | 58 | 342 | 0.0 | 1.0 | 0.00 | 0.00 | 0.00 | 88 | 1015.2 |
| 20260906103015 | 59 | 343 | 0.0 | 1.0 | 0.00 | 0.00 | 0.00 | 87 | 1014.8 |
| 20260906101512 | 59 | 342 | 0.0 | 1.0 | 0.00 | 0.00 | 0.00 | 86 | 1014.7 |
| 20260906100010 | 60 | 343 | 0.0 | 1.0 | 0.00 | 0.00 | 0.00 | 85 | 1014.6 |
| 20260906094507 | 61 | 343 | 0.0 | 3.0 | 0.00 | 0.00 | 0.00 | 84 | 1014.6 |
| 20260906093055 | 61 | 343 | 0.0 | 1.0 | 0.00 | 0.00 | 0.00 | 84 | 1014.5 |
| 20260906091545 | 62 | 343 | 0.0 | 1.0 | 0.00 | 0.00 | 0.00 | 84 | 1014.3 |
| 20260906090025 | 62 | 343 | 0.0 | 1.0 | 0.00 | 0.00 | 0.00 | 83 | 1014.0 |
| 20260906084524 | 62 | 343 | 0.0 | 1.0 | 0.00 | 0.00 | 0.00 | 83 | 1014.0 |
| 20260906083010 | 63 | 343 | 0.0 | 1.0 | 0.00 | 0.00 | 0.00 | 82 | 1013.7 |
| 20260906081509 | 63 | 343 | 0.0 | 2.0 | 0.00 | 0.00 | 0.00 | 81 | 1013.6 |
| 20260906080009 | 63 | 343 | 0.0 | 3.0 | 0.00 | 0.00 | 0.00 | 82 | 1013.6 |
| 20260906074506 | 63 | 342 | 0.0 | 1.0 | 0.00 | 0.00 | 0.00 | 84 | 1013.5 |
| 20260906073004 | 63 | 343 | 0.0 | 1.0 | 0.00 | 0.00 | 0.00 | 83 | 1013.5 |
| 20260906071501 | 63 | 343 | 0.0 | 1.0 | 0.00 | 0.00 | 0.00 | 83 | 1013.3 |
| 20260906070101 | 63 | 343 | 0.0 | 1.0 | 0.00 | 0.00 | 0.00 | 83 | 1013.1 |
| 20260906064602 | 64 | 343 | 0.0 | 1.0 | 0.00 | 0.00 | 0.00 | 84 | 1013.2 |
| 20260906063047 | 64 | 342 | 0.0 | 0.0 | 0.00 | 0.00 | 0.00 | 83 | 1013.2 |
| 20260906061547 | 64 | 343 | 0.0 | 1.0 | 0.00 | 0.00 | 0.00 | 83 | 1013.1 |
| 20260906060056 | 64 | 343 | 0.0 | 1.0 | 0.00 | 0.00 | 0.00 | 83 | 1013.2 |
| 20260906054547 | 64 | 342 | 0.0 | 0.0 | 0.00 | 0.00 | 0.00 | 82 | 1013.1 |
| 20260906053043 | 65 | 343 | 0.0 | 0.0 | 0.00 | 0.00 | 0.00 | 82 | 1013.2 |
| 20260906051545 | 65 | 343 | 0.0 | 1.0 | 0.00 | 0.00 | 0.00 | 82 | 1013.2 |
| 20260906050046 | 65 | 342 | 0.0 | 1.0 | 0.00 | 0.00 | 0.00 | 82 | 1013.2 |
| 20260906044542 | 65 | 343 | 0.0 | 1.0 | 0.00 | 0.00 | 0.00 | 81 | 1013.1 |
| 20260906043024 | 65 | 343 | 0.0 | 1.0 | 0.00 | 0.00 | 0.00 | 81 | 1013.2 |
| 20260906041535 | 65 | 343 | 0.0 | 4.0 | 0.00 | 0.00 | 0.00 | 82 | 1013.2 |
| 20260906040008 | 65 | 343 | 0.0 | 1.0 | 0.00 | 0.00 | 0.00 | 84 | 1013.2 |
| 20260906034506 | 65 | 343 | 0.0 | 0.0 | 0.00 | 0.00 | 0.00 | 83 | 1013.1 |
| 20260906033007 | 65 | 343 | 0.0 | 1.0 | 0.00 | 0.00 | 0.00 | 82 | 1013.1 |
| 20260906031504 | 65 | 343 | 0.0 | 2.0 | 0.00 | 0.00 | 0.00 | 82 | 1012.9 |
| 20260906030005 | 65 | 343 | 0.0 | 1.0 | 0.00 | 0.00 | 0.00 | 82 | 1012.9 |
| 20260906024503 | 65 | 342 | 0.0 | 1.0 | 0.00 | 0.00 | 0.00 | 82 | 1013.0 |
| 20260906023002 | 65 | 343 | 0.0 | 0.0 | 0.00 | 0.00 | 0.00 | 82 | 1012.9 |
| 20260906021503 | 65 | 343 | 0.0 | 1.0 | 0.00 | 0.00 | 0.00 | 81 | 1012.7 |
| 20260906020100 | 65 | 343 | 0.0 | 1.0 | 0.00 | 0.00 | 0.00 | 81 | 1012.6 |
| 20260906014549 | 66 | 343 | 0.0 | 0.0 | 0.00 | 0.00 | 0.00 | 80 | 1012.7 |
| 20260906013045 | 66 | 343 | 0.0 | 1.0 | 0.00 | 0.00 | 0.00 | 79 | 1012.8 |
| 20260906011553 | 66 | 343 | 0.0 | 2.0 | 0.00 | 0.00 | 0.00 | 80 | 1012.8 |
| 20260906010043 | 66 | 343 | 0.0 | 2.0 | 0.00 | 0.00 | 0.00 | 80 | 1012.8 |
| 20260906004542 | 67 | 342 | 0.0 | 2.0 | 0.00 | 0.00 | 0.00 | 80 | 1012.5 |
| 20260906003038 | 67 | 342 | 0.0 | 1.0 | 0.00 | 0.00 | 0.00 | 80 | 1012.4 |
| 20260906001536 | 67 | 343 | 0.0 | 1.0 | 0.00 | 0.00 | 0.00 | 81 | 1012.4 |
| 20260906000034 | 68 | 343 | 0.0 | 1.0 | 0.00 | 0.00 | 0.00 | 80 | 1012.3 |
| 20260905234519 | 68 | 343 | 0.0 | 1.0 | 0.00 | 0.00 | 0.00 | 79 | 1012.1 |
| 20260905233017 | 69 | 343 | 0.0 | 0.0 | 0.00 | 0.00 | 0.00 | 79 | 1012.1 |
| 20260905231514 | 70 | 343 | 0.0 | 0.0 | 0.00 | 0.00 | 0.00 | 77 | 1012.0 |
| 20260905230011 | 70 | 343 | 0.0 | 1.0 | 0.00 | 0.00 | 0.00 | 76 | 1011.8 |
| 20260905224517 | 70 | 343 | 0.0 | 1.0 | 0.00 | 0.00 | 0.00 | 75 | 1011.7 |
| 20260905223008 | 71 | 343 | 0.0 | 1.0 | 0.00 | 0.00 | 0.00 | 72 | 1011.6 |
| 20260905221519 | 72 | 343 | 0.0 | 1.0 | 0.00 | 0.00 | 0.00 | 74 | 1011.5 |
| 20260905220005 | 72 | 343 | 0.0 | 1.0 | 0.00 | 0.00 | 0.00 | 71 | 1011.4 |
| 20260905214546 | 73 | 343 | 0.0 | 2.0 | 0.00 | 0.00 | 0.00 | 68 | 1011.4 |
| 20260905213048 | 74 | 342 | 0.0 | 1.0 | 0.00 | 0.00 | 0.00 | 71 | 1011.2 |
| 20260905211533 | 75 | 343 | 0.0 | 2.0 | 0.00 | 0.00 | 0.00 | 64 | 1011.2 |
| 20260905210030 | 76 | 343 | 0.0 | 1.0 | 0.00 | 0.00 | 0.00 | 62 | 1011.1 |